Location: Gleizolles
(44.4833°N, 6.7667°E)
Time: 10:20:09
(UTC+00:00)

Altair - Pass Details

Date: 25 June 2024
Orbit: 1502 x 1682 km, 47.2° (Epoch: 20 July)

Event Time Altitude Azimuth Distance (km) Brightness Sun altitude
Rises 04:12:49 0° 281° (WNW) 4,670 9.6 2.7°
Reaches altitude 10° 04:15:49 10° 283° (WNW) 3,704 9.1 3.1°
Maximum altitude 04:25:14 80° 11° (N) 1,595 7.9 4.6°
Drops below altitude 10° 04:35:02 10° 99° (E) 3,840 10.6 6.1°
Sets 04:38:12 0° 101° (E) 4,848 11.1 6.6°
